Location: Csohesd
(46.2500°N, 22.6167°E)
Time: 13:41:28
(UTC+00:00)

CZ-4 R/B - Pass Details

Date: 21 October 2021
Orbit: 530 x 595 km, 97.8° (Epoch: 07 December)

Event Time Altitude Azimuth Distance (km) Brightness Sun altitude
Rises 16:26:10 0° 139° (SE) 2,730 4.5 -10.0°
Reaches altitude 10° 16:28:27 10° 128° (SE) 1,851 3.6 -10.3°
Maximum altitude 16:31:56 29° 67° (ENE) 1,055 2.2 -10.9°
Drops below altitude 10° 16:35:30 10° 7° (N) 1,898 3.9 -11.6°
Sets 16:37:53 0° 357° (N) 2,813 4.9 -12.0°
